RH
78 69 64 54 48 50 38 59 50 58 56 64 58 46 43 39 39 41 44 41 68 88 100 99 98 99 99 70 81 72 78 81 82 79 84 79 84 80 84 90 90 88 89
77 65 60 65 55 53 54 55 58 64 68 64 58 50 46 46 38 46 44 53 76 96 93 94 96 85 62 26 26 33 57 78 84 83 85 86 90 88 92 86 90 92 96
78 66 65 67 64 57 55 57 64 68 71 64 62 59 50 44 44 48 46 61 70 67 50 66 64 50 30 23 22 21 27 37 55 70 81 93 96 90 88 87 86 88 85
79 78 65 64 60 60 54 49 57 74 69 65 65 62 52 46 51 58 65 60 55 46 69 57 35 33 25 27 28 26 27 39 50 59 89 91 94 69 65 66 67 72 67
99 68 64 60 63 60 49 51 61 68 67 75 68 62 44 36 50 58 51 47 69 94 98 80 45 26 28 27 26 26 34 60 88 95 99 100 96 99 90 62 50 49 46
96 80 69 66 64 60 50 47 47 63 66 72 65 51 34 33 47 51 43 67 86 98 98 62 54 46 32 20 26 31 36 42 64 89 74 92 95 98 64 41 45 53 37
98 84 76 78 72 59 54 57 82 54 61 48 51 42 28 69 55 72 77 88 86 79 66 63 57 46 25 18 19 24 26 27 39 76 92 93 93 95 80 38 36 36 56
100 80 87 79 72 66 58 50 53 50 48 53 41 30 48 71 76 79 77 66 60 62 64 62 58 47 41 26 17 18 19 18 26 70 92 94 94 60 46 33 20 13 9
99 98 86 76 71 72 55 49 59 70 64 50 31 29 67 76 77 77 52 59 58 60 64 61 56 52 43 31 21 17 18 18 23 53 91 92 72 60 37 22 18 12 11
98 98 96 88 81 86 79 74 77 79 73 70 50 39 75 66 70 53 58 57 56 60 65 64 59 51 41 32 21 17 18 20 25 42 89 88 82 94 74 46 24 19 17
96 99 98 98 99 97 88 90 77 66 71 81 54 41 63 58 64 54 58 56 53 58 63 62 57 48 41 33 28 24 25 30 42 75 92 96 94 97 78 28 24 23 24
98 98 96 97 98 97 93 93 87 68 76 77 67 38 37 38 46 52 57 56 51 52 59 61 47 47 40 36 32 34 32 35 38 79 94 98 94 96 63 30 26 25 24
97 99 84 85 81 94 100 98 75 67 71 88 61 37 38 49 54 55 56 53 52 52 52 50 49 46 37 32 33 36 38 38 43 88 96 99 100 98 95 58 37 34 31
92 97 100 91 76 99 100 91 75 75 85 87 47 42 42 44 46 41 41 40 43 44 44 45 48 34 35 33 34 38 39 42 43 65 89 98 100 100 100 100 78 50 38
97 88 92 92 98 100 100 93 93 86 88 84 44 45 43 43 45 39 32 32 35 35 40 34 31 27 28 31 34 38 39 42 45 47 89 79 82 94 96 100 100 88 48
95 88 78 79 84 100 100 94 89 82 86 77 54 46 48 48 50 41 32 33 34 32 31 33 34 31 28 29 33 36 38 41 46 47 47 50 64 90 90 95 96 97 75
98 86 85 82 82 100 100 96 99 97 83 74 74 54 49 48 48 39 37 37 40 44 41 39 37 32 30 30 33 35 36 40 44 48 48 46 45 62 88 87 88 85 82
100 100 98 92 86 97 96 98 89 89 77 72 71 53 51 48 48 48 44 43 45 48 47 41 38 33 30 32 31 34 34 40 44 44 48 51 48 42 44 69 72 70 72
100 100 100 98 94 95 91 99 96 98 83 81 69 69 55 57 60 60 56 56 55 58 61 56 45 37 32 34 34 34 36 38 40 44 46 50 51 52 50 48 50 51 52
100 100 100 100 100 100 95 96 100 97 90 78 70 71 62 59 60 59 60 62 62 65 69 71 69 56 45 44 47 46 46 45 43 44 44 44 46 53 57 58 55 58 52
98 100 100 100 100 100 100 100 99 91 84 84 68 72 69 59 57 58 58 61 62 64 65 70 73 72 67 63 61 60 59 60 52 49 48 48 47 46 46 52 60 60 58
97 93 100 100 100 100 98 95 88 84 79 79 65 70 77 60 58 57 58 62 68 67 68 64 73 74 76 75 74 71 65 64 65 62 56 53 52 51 49 46 52 58 61
98 96 94 97 99 99 96 89 86 86 94 90 80 78 68 58 60 58 60 69 70 60 60 62 59 64 75 77 78 77 68 68 66 60 58 57 56 55 52 52 52 55 61
64 96 99 99 100 100 99 100 93 87 81 80 64 60 62 69 69 58 67 68 59 62 60 61 75 74 77 79 80 80 79 75 72 69 65 64 64 61 64 64 64 59 60
56 69 90 98 100 100 99 96 97 89 72 64 57 54 55 62 59 59 57 66 64 56 67 68 64 64 74 84 83 85 83 78 75 73 85 71 69 67 70 74 72 71 65
59 55 72 81 91 95 100 98 99 91 79 73 74 58 62 82 63 64 60 56 57 56 62 69 70 61 71 80 85 92 89 84 82 81 82 90 72 70 72 78 78 77 72
Wind_Speed
33 35 34 31 31 29 16 26 20 26 25 28 26 28 26 25 25 24 24 23 22 23 24 22 24 24 23 23 24 25 26 28 28 27 26 25 26 25 27 27 27 27 26
35 38 40 31 29 31 24 23 27 30 31 32 29 28 27 26 23 26 24 24 23 23 23 24 25 24 23 24 24 24 26 28 28 26 26 28 26 25 25 26 26 25 24
35 37 38 30 30 26 26 27 28 30 34 31 30 27 27 25 26 26 25 23 22 22 22 24 24 24 23 22 22 22 22 23 24 25 26 23 23 22 22 22 22 21 20
30 34 32 28 29 31 30 28 27 32 32 32 30 26 27 27 27 27 25 23 23 23 26 26 26 25 24 22 21 21 21 22 24 25 23 22 21 19 20 18 18 17 15
26 33 34 33 34 33 35 33 28 31 32 32 30 28 27 27 28 26 26 25 25 29 28 28 25 24 24 22 22 21 21 24 26 23 23 23 22 22 23 22 22 21 21
26 33 35 36 37 38 36 31 29 28 27 28 28 30 27 27 28 27 28 27 28 28 24 25 25 24 24 23 22 21 21 21 22 22 23 22 22 22 21 22 21 21 22
24 33 35 34 34 35 35 31 29 28 28 23 28 27 28 30 30 29 28 28 28 27 27 26 24 24 24 22 21 20 19 18 20 22 22 21 22 23 22 23 22 22 22
22 36 36 34 33 33 33 31 32 30 29 28 28 29 33 31 31 29 29 28 28 28 28 26 24 24 22 22 22 20 20 19 21 21 21 20 22 22 20 20 20 20 20
27 33 35 35 34 33 32 31 29 29 28 29 31 32 34 33 31 30 28 27 26 26 26 26 23 22 21 21 21 20 19 19 21 21 21 20 20 20 21 20 19 20 20
19 29 30 36 33 33 28 29 23 31 31 30 33 35 35 34 31 28 27 25 25 25 25 24 21 20 20 19 20 19 19 20 20 20 19 19 19 19 19 19 18 18 18
14 23 28 27 39 35 32 28 26 29 32 32 34 36 36 34 31 29 27 25 25 26 25 23 20 19 18 19 19 19 19 19 19 19 17 18 19 18 18 17 16 16 16
14 15 27 31 30 31 32 26 31 35 32 33 36 38 36 34 32 29 25 23 24 25 23 21 19 18 17 18 18 17 17 17 17 16 15 16 17 16 14 15 13 13 13
14 8 19 14 22 34 32 32 43 45 39 32 36 37 36 34 32 30 27 26 26 25 24 22 19 17 15 16 18 17 18 17 16 14 13 13 13 14 13 11 12 12 13
14 17 20 22 23 34 33 45 47 43 40 34 37 37 37 36 34 31 29 26 26 24 22 20 20 16 15 14 15 16 16 15 14 13 11 11 11 11 10 10 10 11 11
13 12 16 16 16 35 41 48 45 42 40 34 35 37 37 35 34 31 29 26 24 22 22 21 18 16 17 15 15 14 14 13 12 11 10 8 6 6 5 7 8 5 9
14 14 17 12 12 22 34 49 45 43 41 34 34 36 33 33 33 31 29 26 23 21 21 19 15 14 15 16 15 14 12 10 9 8 8 7 5 7 2 1 1 4 2
16 16 16 14 16 26 39 47 46 42 47 40 32 34 35 32 32 29 28 25 23 20 20 18 16 15 15 16 15 13 11 9 7 6 4 4 5 6 6 4 6 4 5
17 21 19 18 18 23 31 42 43 37 48 44 41 38 36 34 32 29 27 26 22 21 19 16 15 15 16 14 14 11 10 9 6 5 4 4 4 4 5 7 8 8 7
17 24 25 24 23 27 36 41 41 40 45 42 40 34 34 34 31 28 26 25 22 21 18 14 13 11 14 14 13 11 11 9 10 10 7 6 6 6 6 7 8 9 9
13 15 25 28 31 32 33 37 42 40 41 46 42 36 34 34 30 28 24 22 22 21 18 15 11 11 11 11 11 10 10 12 13 13 12 12 11 9 8 10 11 11 11
13 16 19 30 27 33 36 36 41 40 40 42 44 35 37 36 31 28 25 23 23 21 17 14 12 12 13 14 13 13 15 15 17 18 17 16 16 14 13 14 14 13 13
17 17 22 23 31 33 37 36 40 42 41 41 35 35 38 36 32 28 27 25 25 21 21 16 14 15 17 16 16 16 15 18 23 22 22 21 19 18 18 20 17 17 16
20 22 22 24 30 36 35 37 38 36 37 40 40 39 36 35 32 31 28 26 22 22 21 18 15 16 19 19 19 18 8 11 11 13 14 15 18 20 21 21 19 21 20
18 21 23 24 30 34 40 37 45 43 43 45 45 43 37 33 31 33 28 27 25 24 23 21 18 18 20 23 25 28 27 26 17 12 16 16 15 16 16 18 19 23 24
20 22 25 27 28 32 32 40 39 44 44 43 46 50 44 40 39 37 35 28 30 30 25 24 23 23 22 24 26 30 32 33 34 33 26 22 25 22 19 20 18 22 25
21 23 25 27 30 32 35 41 41 49 48 45 45 49 48 40 46 44 41 39 32 30 26 23 24 25 25 25 28 32 36 34 33 36 37 35 32 29 25 24 24 22 21
Wind_Direction
178 171 166 170 183 194 197 187 198 188 181 174 160 164 162 158 156 156 156 153 145 141 133 132 126 125 122 120 123 120 123 119 116 115 109 109 106 108 108 103 101 100 99
176 176 174 182 182 174 174 199 190 180 176 170 163 167 165 163 158 161 160 157 153 147 137 129 126 126 120 120 121 124 125 123 121 121 116 111 113 116 115 115 110 108 108
184 185 180 181 179 182 181 177 180 177 176 171 170 167 170 167 164 165 163 161 158 154 141 131 127 123 123 122 123 122 123 125 125 120 108 104 107 117 119 120 118 118 118
192 193 193 190 185 179 173 170 178 179 177 178 173 169 171 168 165 162 161 158 157 146 131 128 126 125 123 123 121 121 124 123 122 114 106 104 105 120 131 129 128 131 128
195 199 204 192 189 183 173 170 175 181 178 178 172 171 175 169 166 164 160 157 149 132 127 130 124 119 119 120 119 117 119 121 117 106 105 104 102 100 104 105 104 106 103
200 197 199 198 195 188 186 185 183 185 183 180 176 173 175 169 166 161 158 155 141 138 139 134 125 118 117 117 119 117 119 120 116 108 109 107 105 105 104 105 103 103 103
201 195 194 195 192 187 190 190 181 185 180 180 180 173 170 164 161 158 154 152 148 147 140 133 125 119 113 112 114 118 119 123 114 109 108 108 110 107 106 104 105 100 96
199 197 195 193 193 190 191 185 182 182 182 185 182 172 164 160 160 160 160 154 147 140 139 133 125 120 113 110 111 115 115 111 110 111 108 111 115 108 104 102 98 95 92
207 201 199 197 198 191 189 186 183 188 183 183 175 168 162 162 161 166 158 151 146 143 139 134 126 120 115 109 108 112 111 109 111 114 114 115 115 111 108 102 98 92 90
221 212 203 203 214 197 193 194 203 187 174 173 171 167 163 163 167 160 157 152 145 147 145 136 128 123 116 110 107 110 109 110 113 114 116 119 116 115 110 104 96 91 87
228 221 211 193 201 200 195 197 193 176 180 174 177 172 166 163 163 159 162 151 146 148 145 140 134 127 119 113 111 114 116 114 116 116 119 123 121 123 115 104 101 98 95
229 228 211 215 223 214 208 211 197 184 175 175 173 170 167 163 163 162 161 155 150 148 148 146 139 135 130 124 120 116 113 110 108 112 121 126 127 126 121 114 106 100 92
215 219 217 214 221 224 221 202 179 177 172 175 174 167 163 161 161 163 163 160 155 152 151 153 150 143 138 134 128 121 114 108 108 116 123 127 127 129 126 109 95 81 73
216 207 188 198 222 224 216 185 176 177 171 170 172 166 162 162 164 166 168 166 163 161 159 154 154 145 144 139 131 125 115 111 106 114 123 128 140 134 134 127 100 82 66
175 191 192 193 215 212 198 171 169 170 166 172 171 167 164 166 167 167 167 168 165 163 164 159 151 152 152 147 142 133 121 110 104 109 136 133 139 120 124 137 138 90 62
201 198 188 182 200 201 187 169 174 178 175 167 175 168 170 173 172 170 170 170 166 164 163 161 158 157 160 158 152 146 138 126 116 115 119 131 139 148 172 336 198 178 9
202 202 196 189 173 190 171 176 175 177 174 167 175 171 177 178 178 173 175 169 169 170 172 167 168 167 171 167 167 161 156 151 143 128 121 138 157 168 190 235 275 285 284
212 203 204 188 179 176 170 176 177 171 168 172 172 184 180 187 182 180 177 178 173 178 176 175 179 172 175 177 177 178 175 187 179 197 179 177 180 202 216 228 249 270 272
211 202 203 198 190 184 180 173 177 178 175 177 179 191 188 187 186 184 182 180 182 185 182 182 185 187 184 180 182 190 199 204 220 226 220 221 228 231 234 245 255 263 270
203 200 201 192 192 188 183 189 185 182 186 182 192 198 197 193 193 191 189 193 194 195 189 194 194 195 192 195 204 209 221 235 233 235 241 244 246 246 247 254 253 253 261
198 206 201 198 180 196 190 191 188 190 193 192 189 195 202 199 198 196 197 200 204 201 207 203 207 210 207 213 220 231 239 246 245 245 248 249 253 257 261 266 259 256 264
203 194 200 201 206 193 185 184 185 186 188 190 197 208 206 202 202 202 203 207 207 206 215 214 219 226 224 226 234 243 250 258 257 255 253 256 261 265 264 264 264 266 263
200 201 204 208 203 195 195 188 193 198 199 200 204 209 203 201 206 205 208 212 211 224 224 227 231 238 240 238 247 240 235 243 266 267 254 258 259 259 260 264 267 266 266
207 199 203 207 205 204 206 194 192 195 195 198 201 204 201 196 203 209 213 219 218 226 234 237 239 241 245 244 246 248 251 253 260 273 265 263 255 252 266 268 275 266 265
207 203 198 202 205 207 205 207 201 200 199 198 201 204 210 209 211 212 222 224 222 227 239 242 249 249 249 249 252 257 257 254 257 258 264 259 267 267 269 274 275 275 266
211 209 202 195 198 200 203 203 203 201 203 201 203 206 211 214 213 219 221 228 233 235 239 248 252 257 258 263 267 263 258 257 257 259 261 265 262 268 273 274 270 264 264